User: anonymous   Login
Location: Unspecified
(0.0000°N, 0.0000°E)
Time: 22:10:05
(UTC+00:00)
Language:

CBERS 2B - Orbit

View from above orbital plane
View from above orbital plane
View from above satellite
View from above satellite

Ground track
Ground track

The orbit data is extracted from the following two-line orbital elements,

1 32062U 07042A   18291.46068435  .00000170  00000-0  66816-4 0  9992
2 32062  98.1000 305.5080 0032031 143.0901 217.2505 14.39684728581908
Epoch (UTC): 18 October 2018 11:03:23
Eccentricity: 0.0032031
inclination: 98.1000°
perigee height: 736 km
apogee height: 782 km
right ascension of ascending node: 305.5080°
argument of perigee: 143.0901°
revolutions per day: 14.39684728
mean anomaly at epoch: 217.2505°
orbit number at epoch: 58190

The dashed part of the orbit path shows where the satellite is in the earth's shadow,  

DLR